TimeCST,TemperatureF,Dew PointF,Humidity,Sea Level PressureIn,VisibilityMPH,Wind Direction,Wind SpeedMPH,Gust SpeedMPH,PrecipitationIn,Events,Conditions,WindDirDegrees,DateUTC
12:52 AM,46.9,37.0,68,30.13,10.0,South,10.4,-,N/A,,Clear,180,2012-11-21 06:52:00
1:52 AM,43.0,36.0,76,30.12,10.0,South,6.9,-,N/A,,Clear,190,2012-11-21 07:52:00
2:52 AM,41.0,34.0,76,30.13,10.0,South,6.9,-,N/A,,Clear,180,2012-11-21 08:52:00
3:52 AM,45.0,36.0,71,30.11,10.0,South,10.4,-,N/A,,Clear,190,2012-11-21 09:52:00
4:52 AM,41.0,35.1,79,30.12,10.0,South,9.2,-,N/A,,Clear,190,2012-11-21 10:52:00
5:52 AM,39.0,34.0,82,30.12,10.0,South,8.1,-,N/A,,Clear,190,2012-11-21 11:52:00
6:52 AM,39.9,35.1,83,30.12,10.0,South,9.2,-,N/A,,Clear,180,2012-11-21 12:52:00
7:52 AM,39.9,36.0,86,30.13,9.0,South,10.4,-,N/A,,Clear,180,2012-11-21 13:52:00
8:52 AM,50.0,42.1,74,30.12,10.0,South,13.8,-,N/A,,Clear,190,2012-11-21 14:52:00
9:52 AM,57.9,39.0,49,30.09,10.0,South,19.6,27.6,N/A,,Clear,190,2012-11-21 15:52:00
10:52 AM,64.0,36.0,35,30.07,10.0,SSW,21.9,32.2,N/A,,Clear,200,2012-11-21 16:52:00
11:52 AM,68.0,32.0,26,30.03,10.0,SSW,23.0,40.3,N/A,,Clear,200,2012-11-21 17:52:00
12:52 PM,72.0,30.0,21,29.98,10.0,South,25.3,34.5,N/A,,Clear,190,2012-11-21 18:52:00
1:52 PM,73.0,28.0,19,29.95,10.0,SSW,27.6,36.8,N/A,,Clear,200,2012-11-21 19:52:00
2:52 PM,73.9,30.9,21,29.92,10.0,SSW,29.9,40.3,N/A,,Clear,210,2012-11-21 20:52:00
3:52 PM,73.9,30.9,21,29.89,10.0,South,25.3,34.5,N/A,,Clear,190,2012-11-21 21:52:00
4:52 PM,72.0,33.1,24,29.89,10.0,SSW,19.6,28.8,N/A,,Clear,200,2012-11-21 22:52:00
5:52 PM,66.9,34.0,30,29.89,10.0,South,18.4,-,N/A,,Clear,180,2012-11-21 23:52:00
6:52 PM,63.0,35.1,35,29.91,10.0,South,18.4,-,N/A,,Clear,180,2012-11-22 00:52:00
7:52 PM,61.0,37.0,41,29.90,10.0,South,13.8,-,N/A,,Clear,180,2012-11-22 01:52:00
8:52 PM,62.1,37.9,41,29.87,10.0,South,16.1,-,N/A,,Clear,180,2012-11-22 02:52:00
9:52 PM,60.1,39.9,47,29.86,10.0,South,15.0,-,N/A,,Clear,180,2012-11-22 03:52:00
10:52 PM,62.1,43.0,50,29.82,10.0,SSW,18.4,24.2,N/A,,Clear,200,2012-11-22 04:52:00
11:52 PM,61.0,43.0,52,29.81,10.0,South,15.0,-,N/A,,Clear,190,2012-11-22 05:52:00